GW6464 Weather Reports


time (UTC)temp
F
wind
direction
speed
knots
gust
knots
rain 1hr
in
rain 24hr
in
rain mn
in
humidity
%
barometer
mb
20260906223508 82 22 0.0 0.9 0.00 0.00 0.00 29 1012.5
20260906223020 82 22 0.0 1.7 0.00 0.00 0.00 29 1012.5
20260906222513 82 22 0.0 2.6 0.00 0.00 0.00 26 1012.7
20260906222004 82 22 0.9 2.6 0.00 0.00 0.00 25 1012.8
20260906221531 83 25 0.0 1.7 0.00 0.00 0.00 25 1012.7
20260906221012 83 22 0.0 1.7 0.00 0.00 0.00 26 1012.8
20260906220506 83 352 0.0 4.3 0.00 0.00 0.00 25 1012.9
20260906220010 83 352 0.9 4.3 0.00 0.00 0.00 25 1012.8
20260906215509 82 49 0.0 2.6 0.00 0.00 0.00 26 1012.9
20260906215013 82 49 0.0 3.5 0.00 0.00 0.00 27 1013.0
20260906214507 82 30 0.9 3.5 0.00 0.00 0.00 25 1013.1
20260906214010 82 352 1.7 3.5 0.00 0.00 0.00 28 1013.0
20260906213515 82 36 0.9 5.2 0.00 0.00 0.00 25 1013.1
20260906213024 82 348 3.5 5.2 0.00 0.00 0.00 27 1013.2
20260906212508 82 19 0.0 1.7 0.00 0.00 0.00 27 1013.4
20260906212012 82 19 0.0 3.5 0.00 0.00 0.00 27 1013.5
20260906211523 82 16 0.9 3.5 0.00 0.00 0.00 26 1013.6
20260906211006 81 16 0.9 3.5 0.00 0.00 0.00 29 1013.6
20260906210508 81 132 0.0 3.5 0.00 0.00 0.00 27 1013.7
20260906210024 81 91 0.9 3.5 0.00 0.00 0.00 28 1013.9
20260906205515 80 15 0.0 3.5 0.00 0.00 0.00 29 1013.9
20260906205015 81 39 1.7 3.5 0.00 0.00 0.00 27 1014.0
20260906204518 80 340 0.0 4.3 0.00 0.00 0.00 30 1014.0
20260906204014 80 343 2.6 4.3 0.00 0.00 0.00 29 1014.1
20260906203508 80 11 1.7 4.3 0.00 0.00 0.00 29 1014.2
20260906203017 80 22 0.9 4.3 0.00 0.00 0.00 29 1014.1
20260906202513 80 5 0.9 4.3 0.00 0.00 0.00 29 1014.1
20260906202018 79 49 0.9 6.1 0.00 0.00 0.00 30 1014.2
20260906201510 79 115 1.7 6.1 0.00 0.00 0.00 31 1014.2
20260906201011 80 19 0.9 4.3 0.00 0.00 0.00 31 1014.2
20260906200514 79 158 1.7 5.2 0.00 0.00 0.00 32 1014.4
20260906200008 80 166 0.9 5.2 0.00 0.00 0.00 32 1014.5
20260906195509 79 22 0.0 2.6 0.00 0.00 0.00 35 1014.5
20260906195015 79 19 0.9 3.5 0.00 0.00 0.00 32 1014.6
20260906194526 79 9 1.7 5.2 0.00 0.00 0.00 32 1014.6
20260906194008 78 5 1.7 5.2 0.00 0.00 0.00 35 1014.7
20260906193513 78 347 1.7 5.2 0.00 0.00 0.00 35 1014.8
20260906193026 79 158 0.0 1.7 0.00 0.00 0.00 33 1014.9
20260906192515 78 158 0.0 4.3 0.00 0.00 0.00 34 1015.1
20260906192009 77 158 0.9 4.3 0.00 0.00 0.00 35 1015.2
20260906191523 77 32 1.7 4.3 0.00 0.00 0.00 35 1015.3
20260906191015 77 24 0.0 2.6 0.00 0.00 0.00 37 1015.4
20260906190507 76 29 0.0 3.5 0.00 0.00 0.00 37 1015.4
20260906190019 76 26 0.9 5.2 0.00 0.00 0.00 37 1015.5
20260906185512 76 360 1.7 5.2 0.00 0.00 0.00 38 1015.5
20260906185015 76 352 2.6 4.3 0.00 0.00 0.00 38 1015.5
20260906184516 76 352 0.9 3.5 0.00 0.00 0.00 39 1015.7
20260906184011 75 46 0.0 3.5 0.00 0.00 0.00 41 1015.8
20260906183515 76 105 0.9 2.6 0.00 0.00 0.00 41 1015.9
20260906183013 75 134 0.9 3.5 0.00 0.00 0.00 42 1016.0
20260906182510 75 5 0.9 3.5 0.00 0.00 0.00 43 1016.0
20260906182018 75 153 0.9 2.6 0.00 0.00 0.00 41 1016.0
20260906181539 75 40 1.7 4.3 0.00 0.00 0.00 43 1016.0
20260906181011 75 150 0.9 5.2 0.00 0.00 0.00 43 1016.1
20260906180517 74 341 2.6 5.2 0.00 0.00 0.00 43 1016.2
20260906180047 74 352 0.9 6.1 0.00 0.00 0.00 45 1016.2
20260906175508 74 150 2.6 6.1 0.00 0.00 0.00 45 1016.4
20260906175016 74 55 0.9 3.5 0.00 0.00 0.00 45 1016.4
20260906174534 73 72 0.9 3.5 0.00 0.00 0.00 44 1016.5
20260906174016 73 38 0.9 3.5 0.00 0.00 0.00 46 1016.5
20260906173509 72 29 0.0 3.5 0.00 0.00 0.00 45 1016.5
20260906173027 72 338 1.7 3.5 0.00 0.00 0.00 44 1016.5
20260906172516 73 34 0.9 3.5 0.00 0.00 0.00 46 1016.5
20260906172018 73 38 0.0 3.5 0.00 0.00 0.00 46 1016.6
20260906171520 71 345 0.9 3.5 0.00 0.00 0.00 46 1016.6
20260906171015 71 346 1.7 3.5 0.00 0.00 0.00 45 1016.6
20260906170515 72 42 0.9 4.3 0.00 0.00 0.00 45 1016.6
20260906170020 72 153 0.0 4.3 0.00 0.00 0.00 48 1016.7
20260906165517 71 69 0.0 2.6 0.00 0.00 0.00 46 1016.8
20260906165017 71 69 0.9 2.6 0.00 0.00 0.00 47 1016.9
20260906164532 70 30 0.9 2.6 0.00 0.00 0.00 46 1016.9
20260906164012 70 29 0.0 3.5 0.00 0.00 0.00 46 1016.9
20260906163513 70 28 1.7 4.3 0.00 0.00 0.00 46 1017.0
20260906163029 70 23 2.6 4.3 0.00 0.00 0.00 45 1017.1
20260906162513 70 22 0.9 3.5 0.00 0.00 0.00 47 1017.0
20260906162015 69 20 0.9 3.5 0.00 0.00 0.00 47 1017.1
20260906161528 70 10 0.9 3.5 0.00 0.00 0.00 48 1017.1
20260906161018 70 31 0.9 3.5 0.00 0.00 0.00 47 1017.2
20260906160511 70 346 1.7 3.5 0.00 0.00 0.00 46 1017.2
20260906160033 70 36 1.7 3.5 0.00 0.00 0.00 48 1017.3
20260906155516 69 22 0.0 3.5 0.00 0.00 0.00 46 1017.3
20260906155019 69 22 0.0 3.5 0.00 0.00 0.00 46 1017.3
20260906154523 69 11 0.0 2.6 0.00 0.00 0.00 46 1017.3
20260906154017 69 11 0.9 2.6 0.00 0.00 0.00 46 1017.3
20260906153519 68 346 0.0 3.5 0.00 0.00 0.00 46 1017.3
20260906153023 68 346 0.0 3.5 0.00 0.00 0.00 45 1017.3
20260906152515 68 333 0.9 4.3 0.00 0.00 0.00 44 1017.3
20260906152019 68 344 0.0 4.3 0.00 0.00 0.00 45 1017.3
20260906151531 67 346 0.9 4.3 0.00 0.00 0.00 45 1017.4
20260906151014 67 336 0.9 4.3 0.00 0.00 0.00 45 1017.5
20260906150519 67 352 0.9 3.5 0.00 0.00 0.00 46 1017.6
20260906150034 66 320 0.9 7.0 0.00 0.00 0.00 46 1017.5
20260906145511 67 302 0.9 7.0 0.00 0.00 0.00 45 1017.6
20260906145017 66 352 1.7 4.3 0.00 0.00 0.00 45 1017.7
20260906144529 66 326 0.9 4.3 0.00 0.00 0.00 44 1017.6
20260906144019 66 324 1.7 5.2 0.00 0.00 0.00 44 1017.7
20260906143514 66 347 1.7 7.0 0.00 0.00 0.00 45 1017.8
20260906143027 65 352 1.7 7.0 0.00 0.00 0.00 45 1017.8
20260906142519 65 38 1.7 3.5 0.00 0.00 0.00 46 1017.7
20260906142012 64 360 1.7 3.5 0.00 0.00 0.00 47 1017.8
20260906141526 63 32 1.7 2.6 0.00 0.00 0.00 49 1017.8
20260906141017 62 39 0.0 1.7 0.00 0.00 0.00 51 1017.7
20260906140517 62 39 0.0 2.6 0.00 0.00 0.00 50 1017.7
20260906140037 62 43 0.0 2.6 0.00 0.00 0.00 50 1017.7
20260906135516 61 336 0.0 0.0 0.00 0.00 0.00 51 1017.6
20260906135015 60 321 0.0 1.7 0.00 0.00 0.00 52 1017.6
20260906134533 59 321 0.0 1.7 0.00 0.00 0.00 53 1017.6
20260906134016 58 321 0.0 1.7 0.00 0.00 0.00 55 1017.5
20260906133519 57 321 0.0 1.7 0.00 0.00 0.00 55 1017.5
20260906133038 57 321 0.0 1.7 0.00 0.00 0.00 55 1017.5
20260906132514 56 321 0.9 1.7 0.00 0.00 0.00 54 1017.5
20260906132013 56 321 0.9 2.6 0.00 0.00 0.00 54 1017.5
20260906131531 56 321 0.0 2.6 0.00 0.00 0.00 54 1017.5
20260906131018 56 322 0.9 1.7 0.00 0.00 0.00 53 1017.6
20260906130515 56 327 0.0 0.0 0.00 0.00 0.00 53 1017.7
20260906130029 56 327 0.0 0.0 0.00 0.00 0.00 52 1017.7
20260906125515 56 327 0.0 0.0 0.00 0.00 0.00 52 1017.6
20260906125015 57 327 0.0 0.0 0.00 0.00 0.00 52 1017.6
20260906124529 57 327 0.0 0.0 0.00 0.00 0.00 52 1017.6
20260906124021 57 327 0.0 0.0 0.00 0.00 0.00 52 1017.5
20260906123521 57 327 0.0 0.0 0.00 0.00 0.00 51 1017.5
20260906123027 57 327 0.0 0.0 0.00 0.00 0.00 51 1017.5
20260906122514 57 327 0.0 0.0 0.00 0.00 0.00 51 1017.6
20260906122020 57 327 0.0 0.0 0.00 0.00 0.00 49 1017.5
20260906121536 57 327 0.0 0.0 0.00 0.00 0.00 49 1017.4
20260906121014 57 327 0.0 0.0 0.00 0.00 0.00 49 1017.3
20260906120521 57 327 0.0 0.0 0.00 0.00 0.00 50 1017.3
20260906120020 57 327 0.0 0.0 0.00 0.00 0.00 49 1017.1
20260906115503 58 327 0.0 0.0 0.00 0.00 0.00 49 1017.1
20260906115007 58 327 0.0 0.0 0.00 0.00 0.00 48 1017.1
20260906114528 58 327 0.0 0.0 0.00 0.00 0.00 48 1017.0
20260906114004 59 327 0.0 0.0 0.00 0.00 0.00 47 1016.9
20260906113504 59 327 0.0 0.0 0.00 0.00 0.00 47 1016.8
20260906113017 59 327 0.0 0.0 0.00 0.00 0.00 47 1016.9
20260906112510 60 327 0.0 0.0 0.00 0.00 0.00 46 1016.8
20260906112003 60 327 0.0 0.0 0.00 0.00 0.00 46 1016.8
20260906111508 60 327 0.0 0.0 0.00 0.00 0.00 46 1016.8
20260906111007 60 327 0.0 0.0 0.00 0.00 0.00 45 1016.8
20260906110505 60 327 0.0 0.0 0.00 0.00 0.00 45 1016.8
20260906110004 60 327 0.0 0.0 0.00 0.00 0.00 45 1016.7
20260906105508 60 327 0.0 0.0 0.00 0.00 0.00 45 1016.6
20260906105012 60 327 0.0 0.0 0.00 0.00 0.00 45 1016.6
20260906104504 60 327 0.0 0.0 0.00 0.00 0.00 45 1016.7
20260906104006 60 327 0.0 0.0 0.00 0.00 0.00 45 1016.7
20260906103508 60 327 0.0 0.0 0.00 0.00 0.00 45 1016.6
20260906103023 60 327 0.0 0.0 0.00 0.00 0.00 45 1016.6
20260906102504 60 327 0.0 0.0 0.00 0.00 0.00 45 1016.7
20260906102006 61 327 0.0 0.0 0.00 0.00 0.00 45 1016.7
20260906101522 61 327 0.0 0.0 0.00 0.00 0.00 44 1016.6
20260906101002 61 327 0.0 0.0 0.00 0.00 0.00 45 1016.6
20260906100508 61 327 0.0 0.0 0.00 0.00 0.00 44 1016.5
20260906100021 61 327 0.0 0.0 0.00 0.00 0.00 44 1016.5
20260906095511 61 327 0.0 0.0 0.00 0.00 0.00 44 1016.5
20260906095003 61 327 0.0 0.0 0.00 0.00 0.00 44 1016.5
20260906094511 61 327 0.0 0.0 0.00 0.00 0.00 44 1016.5
20260906094013 61 327 0.0 0.0 0.00 0.00 0.00 44 1016.5
20260906093504 61 327 0.0 0.0 0.00 0.00 0.00 44 1016.6
20260906093008 61 327 0.0 0.0 0.00 0.00 0.00 44 1016.6
20260906092508 61 327 0.0 0.0 0.00 0.00 0.00 44 1016.5
20260906092015 61 327 0.0 0.0 0.00 0.00 0.00 43 1016.6
20260906091504 61 327 0.0 0.0 0.00 0.00 0.00 43 1016.6
20260906091007 62 327 0.0 0.0 0.00 0.00 0.00 43 1016.6
20260906090513 62 327 0.0 0.0 0.00 0.00 0.00 42 1016.6
20260906090004 62 327 0.0 0.0 0.00 0.00 0.00 42 1016.7
20260906085507 62 327 0.0 0.0 0.00 0.00 0.00 42 1016.7
20260906085011 62 327 0.0 0.0 0.00 0.00 0.00 42 1016.8
20260906084525 62 327 0.0 0.0 0.00 0.00 0.00 42 1016.8
20260906084002 62 327 0.0 0.0 0.00 0.00 0.00 42 1016.9
20260906083513 62 327 0.0 0.0 0.00 0.00 0.00 41 1016.9
20260906083033 62 327 0.0 0.0 0.00 0.00 0.00 41 1016.9
20260906082514 62 327 0.0 0.0 0.00 0.00 0.00 40 1017.0
20260906082004 63 327 0.0 0.0 0.00 0.00 0.00 40 1017.1
20260906081517 63 327 0.0 0.0 0.00 0.00 0.00 40 1017.1
20260906081011 63 327 0.0 0.0 0.00 0.00 0.00 39 1017.1
20260906080504 64 327 0.0 0.0 0.00 0.00 0.00 39 1017.1
20260906080014 64 327 0.0 0.0 0.00 0.00 0.00 40 1017.2
20260906075511 64 327 0.0 0.0 0.00 0.00 0.00 40 1017.2
20260906075016 64 327 0.0 0.0 0.00 0.00 0.00 39 1017.2
20260906074507 64 327 0.0 0.0 0.00 0.00 0.00 40 1017.2
20260906074011 64 327 0.0 0.0 0.00 0.00 0.00 38 1017.2
20260906073517 64 327 0.0 0.0 0.00 0.00 0.00 39 1017.3
20260906073003 63 327 0.0 1.7 0.00 0.00 0.00 40 1017.4
20260906072508 63 327 0.0 1.7 0.00 0.00 0.00 40 1017.4
20260906072011 62 327 0.0 2.6 0.00 0.00 0.00 41 1017.4
20260906071526 62 327 0.0 2.6 0.00 0.00 0.00 41 1017.4
20260906071010 62 327 0.0 2.6 0.00 0.00 0.00 41 1017.5
20260906070510 62 327 0.9 2.6 0.00 0.00 0.00 41 1017.5
20260906070023 63 20 0.0 0.0 0.00 0.00 0.00 41 1017.6
20260906065519 63 23 0.0 0.0 0.00 0.00 0.00 41 1017.6
20260906065010 63 23 0.0 0.0 0.00 0.00 0.00 40 1017.6
20260906064519 63 23 0.0 0.0 0.00 0.00 0.00 40 1017.6
20260906064019 64 23 0.0 0.0 0.00 0.00 0.00 39 1017.7
20260906063507 64 24 0.0 0.0 0.00 0.00 0.00 39 1017.7
20260906063015 65 24 0.0 0.9 0.00 0.00 0.00 39 1017.8
20260906062512 65 24 0.0 0.9 0.00 0.00 0.00 38 1017.9
20260906062020 66 17 0.0 0.0 0.00 0.00 0.00 39 1017.9
20260906061513 66 17 0.0 0.0 0.00 0.00 0.00 38 1017.9
20260906061011 66 17 0.0 0.0 0.00 0.00 0.00 38 1017.9
20260906060514 66 17 0.0 0.9 0.00 0.00 0.00 37 1017.8
20260906060016 66 17 0.0 0.9 0.00 0.00 0.00 36 1017.8
20260906055509 66 17 0.0 1.7 0.00 0.00 0.00 36 1017.8
20260906055013 66 17 0.0 1.7 0.00 0.00 0.00 36 1017.7
20260906054541 66 17 0.0 1.7 0.00 0.00 0.00 36 1017.8
20260906054006 66 17 0.0 1.7 0.00 0.00 0.00 35 1017.9
20260906053510 66 17 0.9 1.7 0.00 0.00 0.00 36 1018.0
20260906053027 66 17 0.0 1.7 0.00 0.00 0.00 37 1018.0
20260906052506 66 17 0.9 1.7 0.00 0.00 0.00 37 1018.1
20260906052012 66 22 0.0 0.0 0.00 0.00 0.00 37 1018.1
20260906051522 66 22 0.0 0.0 0.00 0.00 0.00 38 1018.1
20260906051014 66 22 0.0 0.0 0.00 0.00 0.00 37 1018.1
20260906050509 66 22 0.0 0.0 0.00 0.00 0.00 37 1018.0
20260906050019 66 22 0.0 0.0 0.00 0.00 0.00 37 1018.0
20260906045514 66 22 0.0 0.0 0.00 0.00 0.00 36 1018.0
20260906045018 66 22 0.0 0.0 0.00 0.00 0.00 36 1018.1
20260906044515 66 22 0.0 0.0 0.00 0.00 0.00 36 1018.2
20260906044016 66 22 0.0 0.0 0.00 0.00 0.00 36 1018.2
20260906043514 67 22 0.0 0.0 0.00 0.00 0.00 36 1018.1
20260906043017 67 23 0.0 0.0 0.00 0.00 0.00 35 1018.3
20260906042511 67 23 0.0 0.0 0.00 0.00 0.00 35 1018.3
20260906042014 68 23 0.0 0.0 0.00 0.00 0.00 35 1018.2
20260906041531 68 23 0.0 0.0 0.00 0.00 0.00 35 1018.2
20260906041009 68 23 0.0 0.0 0.00 0.00 0.00 34 1018.1
20260906040511 68 23 0.0 0.0 0.00 0.00 0.00 33 1018.1
20260906040058 68 23 0.0 0.0 0.00 0.00 0.00 33 1018.1
20260906035507 69 23 0.0 0.0 0.00 0.00 0.00 33 1018.1
20260906035013 69 23 0.0 0.0 0.00 0.00 0.00 34 1018.1
20260906034527 69 23 0.0 0.0 0.00 0.00 0.00 34 1018.1
20260906034014 69 23 0.0 0.0 0.00 0.00 0.00 34 1018.0
20260906033510 69 23 0.0 0.0 0.00 0.00 0.00 34 1018.0
20260906033038 69 23 0.0 0.0 0.00 0.00 0.00 33 1018.0
20260906032514 69 23 0.0 0.0 0.00 0.00 0.00 32 1018.0
20260906032019 69 23 0.0 2.6 0.00 0.00 0.00 32 1017.9
20260906031518 69 23 0.0 2.6 0.00 0.00 0.00 32 1017.8
20260906031014 69 22 0.0 1.7 0.00 0.00 0.00 32 1017.9
20260906030519 70 35 0.0 0.0 0.00 0.00 0.00 32 1018.0
20260906030014 70 35 0.0 1.7 0.00 0.00 0.00 31 1017.9
20260906025513 71 35 0.0 1.7 0.00 0.00 0.00 32 1017.8
20260906025018 71 35 0.0 0.0 0.00 0.00 0.00 30 1017.7
20260906024532 71 35 0.0 0.0 0.00 0.00 0.00 30 1017.5
20260906024014 71 35 0.0 0.0 0.00 0.00 0.00 29 1017.4
20260906023516 71 35 0.0 0.0 0.00 0.00 0.00 29 1017.4
20260906023031 72 35 0.0 0.0 0.00 0.00 0.00 29 1017.4
20260906022510 72 35 0.0 0.0 0.00 0.00 0.00 28 1017.3
20260906022014 72 35 0.0 0.0 0.00 0.00 0.00 28 1017.4
20260906021530 73 35 0.0 0.0 0.00 0.00 0.00 28 1017.4
20260906021018 73 35 0.0 0.0 0.00 0.00 0.00 28 1017.3
20260906020512 73 35 0.0 0.0 0.00 0.00 0.00 28 1017.3
20260906020028 73 35 0.0 0.0 0.00 0.00 0.00 27 1017.2
20260906015516 74 35 0.0 0.0 0.00 0.00 0.00 27 1017.3
20260906015011 74 35 0.0 0.0 0.00 0.00 0.00 27 1017.2
20260906014526 74 35 0.0 0.0 0.00 0.00 0.00 27 1017.3
20260906014016 74 35 0.0 0.0 0.00 0.00 0.00 27 1017.2
20260906013519 74 35 0.0 0.0 0.00 0.00 0.00 27 1017.3
20260906013018 74 35 0.0 0.0 0.00 0.00 0.00 27 1017.2
20260906012517 74 35 0.0 0.0 0.00 0.00 0.00 27 1017.2
20260906012019 74 35 0.0 0.0 0.00 0.00 0.00 27 1017.3
20260906011534 74 35 0.0 0.0 0.00 0.00 0.00 28 1017.2
20260906011011 74 35 0.0 0.0 0.00 0.00 0.00 28 1017.2
20260906010517 74 35 0.0 0.0 0.00 0.00 0.00 29 1017.2
20260906010031 75 35 0.0 0.0 0.00 0.00 0.00 28 1017.1
20260906005512 75 35 0.0 0.0 0.00 0.00 0.00 28 1017.1
20260906005016 76 35 0.0 0.0 0.00 0.00 0.00 27 1017.1
20260906004531 76 35 0.0 0.0 0.00 0.00 0.00 28 1017.1
20260906004024 76 35 0.0 0.0 0.00 0.00 0.00 27 1017.1
20260906003514 76 35 0.0 0.0 0.00 0.00 0.00 27 1017.1
20260906003027 77 35 0.0 0.0 0.00 0.00 0.00 25 1017.2
20260906002518 77 35 0.0 0.0 0.00 0.00 0.00 23 1017.1
20260906002012 77 35 0.0 0.0 0.00 0.00 0.00 23 1017.2
20260906001526 78 35 0.0 0.0 0.00 0.00 0.00 23 1017.2
20260906001007 78 35 0.0 0.0 0.00 0.00 0.00 23 1017.2
20260906000502 78 35 0.0 0.0 0.00 0.00 0.00 24 1017.2
20260906000004 78 35 0.0 0.0 0.00 0.00 0.00 25 1017.2
20260905235503 79 35 0.0 0.0 0.00 0.00 0.00 22 1017.2
20260905235006 78 35 0.0 0.0 0.00 0.00 0.00 24 1017.4
20260905234502 78 35 0.0 0.0 0.00 0.00 0.00 23 1017.3
20260905234003 78 35 0.0 0.0 0.00 0.00 0.00 22 1017.2
20260905233519 78 35 0.0 0.9 0.00 0.00 0.00 21 1017.2
20260905233015 79 35 0.0 0.9 0.00 0.00 0.00 20 1017.2
20260905232503 78 35 0.0 1.7 0.00 0.00 0.00 22 1017.2
20260905232003 79 35 0.0 3.5 0.00 0.00 0.00 20 1017.2
20260905231519 79 35 0.9 3.5 0.00 0.00 0.00 20 1017.2
20260905231001 79 32 0.9 3.5 0.00 0.00 0.00 23 1017.2
20260905230514 79 34 0.0 3.5 0.00 0.00 0.00 22 1017.2
20260905230008 79 53 0.9 2.6 0.00 0.00 0.00 23 1017.2
20260905225510 79 106 0.0 1.7 0.00 0.00 0.00 23 1017.3
20260905225006 79 106 0.0 3.5 0.00 0.00 0.00 21 1017.2
20260905224507 79 9 0.9 3.5 0.00 0.00 0.00 19 1017.3
20260905224010 79 360 0.0 3.5 0.00 0.00 0.00 20 1017.4